Lid_Strength_Index
3 6 8 10 13 14 16 14 12 12 12 9 6 7 8 7 9 11 2 1 1 1 -0 -0 -0 -1 -1 -1 -1 -1 -1 -1 -1 -1 -1 -1 -1 -1 -1 -1 -1 -1 -1 -1 -1 -1 -1 -1 -1
5 8 10 12 15 17 15 12 12 10 10 9 10 6 7 8 5 4 4 1 1 0 -0 -0 -1 -1 -1 -1 -1 -1 -1 -1 -1 -1 -1 -1 -1 -1 -1 -1 -1 -1 -1 -1 -1 -1 -1 -1 -1
4 8 14 14 17 16 14 12 9 9 9 10 10 5 6 7 4 3 2 1 0 0 -0 -0 -0 -0 -1 -1 -1 -1 -1 -1 -1 -1 -1 -1 -1 -1 -1 -1 -1 -1 -1 -1 -1 -1 -1 -1 -1
6 9 11 17 17 15 13 12 9 9 10 9 9 11 8 3 3 2 1 1 1 0 0 -0 -0 -0 -1 -1 -1 -1 -1 -1 -1 -1 -1 -1 -1 -1 -1 -1 -1 -1 -1 -1 -1 -1 -1 -1 -1
9 12 16 17 17 15 12 11 11 10 10 8 10 12 11 4 2 1 1 1 1 1 0 -0 -0 -1 -1 -1 -1 -1 -1 -1 -1 -1 -1 -1 -1 -1 -1 -1 -1 -1 -1 -1 -1 -1 -1 -1 -1
11 13 18 18 16 14 13 11 11 10 10 10 11 11 6 3 3 2 1 1 1 1 0 -0 -1 -1 -1 -1 -1 -1 -1 -1 -1 -1 -1 -1 -1 -1 -1 -1 -1 -1 -1 -1 -1 -1 -1 -1 -1
12 16 18 19 17 15 14 11 12 12 11 11 9 10 8 5 2 1 1 1 1 0 0 0 -0 -0 -1 -1 -1 -1 -1 -1 -1 -1 -1 -1 -1 -1 -1 -1 -1 -1 -1 -1 -1 -1 -1 -1 -1
12 14 18 17 15 16 12 11 11 11 11 9 8 11 11 5 2 2 1 1 1 1 1 0 -0 -0 -0 -0 -1 -1 -1 -1 -1 -1 -1 -1 -1 -1 -1 -1 -1 -1 -1 -1 -1 -1 -1 -1 -2
10 15 16 16 16 15 14 13 11 10 10 11 10 9 4 3 2 3 3 2 2 1 1 0 0 0 -0 -0 -0 -1 -1 -1 -1 -1 -1 -0 -0 -0 -1 -1 -1 -1 -1 -1 -1 -1 -1 -1 -1
12 14 13 14 13 14 13 13 11 10 12 11 10 8 7 3 3 4 4 4 3 2 1 1 0 0 0 -0 -0 -0 -0 -0 -0 -0 -0 -0 0 -0 -0 -1 -1 -1 -1 -1 -1 -1 -1 -1 -1
13 13 10 12 11 11 12 12 10 10 12 12 11 10 8 4 4 4 4 3 3 2 2 1 0 0 0 0 -0 -0 -0 -0 -0 -0 -0 -0 -0 -0 -0 -0 -0 -0 -1 -0 -1 -1 -1 -0 -0
15 12 10 10 9 10 11 9 10 10 10 8 9 9 8 5 5 4 4 4 3 2 2 1 1 1 1 0 0 0 0 -0 -0 -0 -0 -0 -0 0 -0 -0 -0 -0 -0 -0 -0 -0 -1 -0 -0
14 13 12 10 9 10 9 9 9 9 7 6 8 8 8 5 4 4 3 3 3 3 2 1 1 1 0 0 0 0 0 0 -0 -0 -0 -0 0 0 0 -0 -0 -0 -1 -0 -0 -0 -0 0 -0
11 12 11 11 11 11 10 9 9 8 7 7 7 9 10 6 4 4 4 3 3 2 2 1 1 1 0 1 0 0 0 -0 -0 -0 -0 -0 -0 -0 -0 -0 0 -0 -0 -0 -0 0 1 1 1
11 13 12 12 12 12 11 12 12 8 7 7 7 7 10 10 4 4 3 3 3 2 2 2 1 0 0 1 0 0 0 -0 0 0 -0 -0 -0 -0 -0 0 0 -0 0 0 0 1 1 1 1
11 13 16 13 11 11 11 16 12 10 9 8 8 7 8 10 5 4 3 3 2 2 2 1 1 1 1 1 0 0 0 0 0 0 -0 -0 -0 -0 -0 0 1 0 0 -0 1 1 1 1 1
13 16 16 14 11 11 12 14 11 10 10 9 9 8 8 9 7 5 3 3 2 2 2 2 1 1 1 1 1 2 1 1 1 0 -0 -0 -0 -0 -0 0 0 0 0 1 1 2 2 2 1
16 16 14 14 12 11 13 13 12 11 10 10 9 9 9 9 8 6 3 3 3 2 2 2 2 2 1 2 2 1 1 1 0 0 -0 -0 -0 -1 0 -0 -0 0 1 1 1 1 1 2 2
11 12 13 13 10 12 13 13 12 11 10 10 10 9 9 11 5 4 3 3 3 3 3 3 3 3 2 2 2 2 2 1 1 0 0 -0 0 -0 -0 -0 0 1 2 1 1 2 3 3 2
11 13 14 12 10 11 11 12 11 11 11 10 9 9 10 9 6 5 4 3 3 3 3 3 3 4 2 1 1 1 1 1 0 0 0 -0 1 0 1 0 1 1 1 1 2 2 3 3 2
11 12 13 13 11 10 12 13 12 11 10 10 9 8 9 9 6 5 5 4 3 3 4 4 4 4 3 2 1 2 1 1 1 1 1 0 0 -0 0 0 2 1 0 2 2 2 2 3 2
13 10 10 11 13 17 11 19 14 12 11 11 9 10 9 9 6 5 5 4 4 3 3 4 4 4 4 1 2 2 3 3 3 2 2 1 1 1 2 1 0 0 1 2 2 2 2 2 3
12 9 10 11 12 14 14 17 15 12 13 12 10 9 10 10 5 6 5 4 3 3 3 4 4 5 4 2 2 3 3 3 2 2 4 4 1 0 0 0 0 1 2 2 2 3 3 2 2
8 10 11 12 12 19 15 15 16 14 12 11 10 9 10 10 8 5 4 4 4 3 4 4 4 5 4 2 2 2 2 3 2 4 5 4 4 2 0 1 2 3 3 4 4 4 4 3 4
10 14 19 19 19 20 13 16 15 12 11 11 11 10 9 9 9 5 5 5 4 4 5 5 4 5 4 3 2 2 2 3 2 3 3 3 3 2 3 3 3 4 4 5 5 5 5 5 6
12 13 18 23 21 18 13 17 14 9 8 9 9 10 9 9 9 7 5 4 4 4 5 4 3 3 3 3 2 2 2 1 1 3 2 1 2 2 2 4 5 6 6 7 7 7 7 6 5
13 16 11 17 16 18 16 13 11 10 9 9 9 11 10 9 10 7 5 4 4 4 4 3 3 3 3 3 3 2 2 2 2 2 2 2 3 5 6 6 7 8 8 7 8 7 7 6 7
12 10 17 15 22 22 17 15 15 12 11 10 9 10 10 10 10 6 5 4 4 3 3 2 2 4 5 5 5 5 5 4 3 4 6 6 6 7 7 8 9 9 8 8 7 7 7 7 7
13 14 14 14 17 20 20 16 12 11 11 11 10 8 11 11 6 6 5 4 3 3 3 4 5 6 7 7 6 7 7 7 6 7 8 7 7 7 9 9 8 8 8 8 7 7 7 7 7
10 13 13 17 19 17 17 17 10 11 10 10 9 8 10 6 6 5 5 4 4 5 6 7 7 8 8 7 8 8 8 8 8 9 9 9 9 10 9 8 8 9 8 8 8 8 8 7 7